DW3319 Weather Reports


Display with metric or nautical units.
time (UTC)temp
F
wind
direction
speed
MPH
gust
MPH
rain 1hr
in
rain 24hr
in
rain mn
in
humidity
%
barometer
mb
20260831150054 87 221 1.0 9.0 0.00 0.00 0.00 79 1017.5
20260831144544 86 30 1.0 8.0 0.00 0.00 0.00 84 1017.5
20260831143052 85 29 1.0 7.0 0.00 0.00 0.00 85 1017.5
20260831141549 84 41 1.0 6.0 0.00 0.00 0.00 88 1017.6
20260831140056 82 309 1.0 6.0 0.00 0.00 0.00 92 1017.5
20260831134558 79 144 1.0 7.0 0.00 0.00 0.00 97 1017.4
20260831133045 77 61 1.0 6.0 0.00 0.00 0.00 99 1017.4
20260831131555 76 34 1.0 3.0 0.00 0.00 0.00 99 1017.1
20260831130049 74 0 0.0 1.0 0.00 0.00 0.00 99 1017.1
20260831124547 73 0 0.0 1.0 0.00 0.00 0.00 98 1016.8
20260831123047 73 162 0.0 2.0 0.00 0.00 0.00 98 1016.5
20260831121551 73 0 0.0 1.0 0.00 0.00 0.00 98 1016.1
20260831120051 72 0 0.0 1.0 0.00 0.00 0.00 97 1015.9
20260831114545 73 0 0.0 1.0 0.00 0.00 0.00 97 1015.8
20260831113058 73 0 0.0 1.0 0.00 0.00 0.00 97 1015.7
20260831111553 73 0 0.0 1.0 0.00 0.00 0.00 97 1015.7
20260831110049 73 0 0.0 1.0 0.00 0.00 0.00 97 1015.6
20260831104557 73 0 0.0 1.0 0.00 0.00 0.00 97 1015.6
20260831103057 73 0 0.0 1.0 0.00 0.00 0.00 97 1015.6
20260831101602 74 0 0.0 1.0 0.00 0.00 0.00 97 1015.7
20260831100105 73 0 0.0 1.0 0.00 0.00 0.00 97 1015.7
20260831094549 74 0 0.0 1.0 0.00 0.00 0.00 96 1015.5
20260831093059 74 0 0.0 1.0 0.00 0.00 0.00 96 1015.4
20260831091548 74 0 0.0 1.0 0.00 0.00 0.00 96 1015.4
20260831090058 74 0 0.0 1.0 0.00 0.00 0.00 96 1015.4
20260831084547 75 0 0.0 1.0 0.00 0.00 0.00 96 1015.4
20260831083105 75 0 0.0 1.0 0.00 0.00 0.00 96 1015.4
20260831081558 75 0 0.0 1.0 0.00 0.00 0.00 96 1015.5
20260831080121 75 0 0.0 1.0 0.00 0.00 0.00 95 1015.7
20260831074548 75 0 0.0 1.0 0.00 0.00 0.00 95 1015.6
20260831073050 76 0 0.0 2.0 0.00 0.00 0.00 95 1015.6
20260831071548 76 238 0.0 1.0 0.00 0.00 0.00 95 1015.7
20260831070050 76 9 0.0 1.0 0.00 0.00 0.00 95 1015.9
20260831064554 76 0 0.0 1.0 0.00 0.00 0.00 94 1015.9
20260831063105 77 0 0.0 1.0 0.00 0.00 0.00 94 1016.0
20260831061548 77 0 0.0 1.0 0.00 0.00 0.00 93 1016.1
20260831060059 78 0 0.0 1.0 0.00 0.00 0.00 93 1016.0
20260831054556 78 0 0.0 1.0 0.00 0.00 0.00 92 1016.1
20260831053130 78 0 0.0 1.0 0.00 0.00 0.00 92 1016.1
20260831051553 79 0 0.0 2.0 0.00 0.00 0.00 91 1016.1
20260831050051 80 0 0.0 1.0 0.00 0.00 0.00 90 1016.2
20260831044637 80 0 0.0 2.0 0.00 0.00 0.00 90 1016.2
20260831043048 81 119 0.0 2.0 0.00 0.00 0.00 89 1016.2
20260831041553 81 108 0.0 2.0 0.00 0.00 0.00 88 1016.3
20260831040059 82 93 1.0 6.0 0.00 0.00 0.00 88 1016.2
20260831034555 83 105 0.0 5.0 0.00 0.00 0.00 87 1016.0
20260831033107 83 167 3.0 8.0 0.00 0.00 0.00 87 1015.9
20260831031551 83 167 3.0 9.0 0.00 0.00 0.00 86 1015.8
20260831030050 83 205 4.0 11.0 0.00 0.00 0.00 87 1015.7
20260831024548 81 171 5.0 12.0 0.00 0.00 0.00 89 1015.5
20260831023054 78 178 1.0 3.0 0.00 0.00 0.00 88 1015.2
20260831021548 78 0 0.0 2.0 0.00 0.00 0.00 88 1014.9
20260831020049 79 0 0.0 2.0 0.00 0.00 0.00 87 1014.6
20260831014550 80 238 0.0 1.0 0.00 0.00 0.00 86 1014.3
20260831013051 81 265 0.0 1.0 0.00 0.00 0.00 84 1014.1
20260831011555 82 0 0.0 1.0 0.00 0.00 0.00 81 1013.7
20260831010101 84 265 0.0 2.0 0.00 0.00 0.00 78 1013.5
20260831004548 86 0 0.0 1.0 0.00 0.00 0.00 76 1013.5
20260831003052 88 0 0.0 2.0 0.00 0.00 0.00 73 1013.5
20260831001553 90 0 0.0 2.0 0.00 0.00 0.00 65 1013.6
20260831000058 93 0 0.0 4.0 0.00 0.00 0.00 63 1013.6
20260830234601 95 0 0.0 2.0 0.00 0.00 0.00 58 1013.6
20260830233049 95 51 1.0 5.0 0.00 0.00 0.00 55 1013.6
20260830231553 96 173 3.0 8.0 0.00 0.00 0.00 55 1013.6
20260830230047 97 0 1.0 5.0 0.00 0.00 0.00 52 1013.5
20260830224552 96 41 1.0 7.0 0.00 0.00 0.00 54 1013.5
20260830223049 95 150 2.0 9.0 0.00 0.00 0.00 53 1013.6
20260830221547 97 186 2.0 7.0 0.00 0.00 0.00 50 1013.6
20260830220059 98 137 1.0 7.0 0.00 0.00 0.00 50 1013.6
20260830214550 98 153 1.0 7.0 0.00 0.00 0.00 51 1013.6
20260830213104 98 209 3.0 8.0 0.00 0.00 0.00 48 1013.6
20260830211552 98 160 2.0 8.0 0.00 0.00 0.00 48 1013.8
20260830210049 97 51 1.0 4.0 0.00 0.00 0.00 50 1014.2
20260830204547 97 119 3.0 9.0 0.00 0.00 0.00 52 1014.3
20260830203052 97 150 3.0 7.0 0.00 0.00 0.00 53 1014.4
20260830201550 97 170 4.0 11.0 0.00 0.00 0.00 50 1014.8
20260830200048 96 121 3.0 11.0 0.00 0.00 0.00 53 1015.2
20260830194557 96 44 3.0 9.0 0.00 0.00 0.00 55 1015.3
20260830193051 96 51 2.0 10.0 0.00 0.00 0.00 54 1015.4
20260830191549 95 34 2.0 4.0 0.00 0.00 0.00 57 1015.8
20260830190059 95 157 3.0 7.0 0.00 0.00 0.00 56 1015.9
20260830184553 95 265 3.0 11.0 0.00 0.00 0.00 59 1016.1
20260830183049 96 150 2.0 8.0 0.00 0.00 0.00 58 1016.2
20260830181549 94 153 3.0 7.0 0.00 0.00 0.00 62 1016.4
20260830180059 93 129 4.0 8.0 0.00 0.00 0.00 63 1016.5
20260830174548 93 178 1.0 8.0 0.00 0.00 0.00 66 1016.8
20260830173058 92 9 2.0 8.0 0.00 0.00 0.00 65 1017.1
20260830171549 93 121 2.0 5.0 0.00 0.00 0.00 65 1017.5
20260830170049 92 238 1.0 8.0 0.00 0.00 0.00 63 1017.6
20260830164555 92 360 2.0 9.0 0.00 0.00 0.00 69 1017.7
20260830163049 91 34 3.0 7.0 0.00 0.00 0.00 74 1017.8
20260830161602 91 238 2.0 6.0 0.00 0.00 0.00 76 1017.6
20260830160046 90 101 1.0 9.0 0.00 0.00 0.00 76 1017.7
20260830154549 89 76 2.0 6.0 0.00 0.00 0.00 79 1017.6
20260830153050 88 61 1.0 7.0 0.00 0.00 0.00 80 1017.9
20260830151548 88 282 1.0 6.0 0.00 0.00 0.00 83 1017.9